This is the latest recevied weather packets stored in our database for station/object N8XE-13. If no packets are shown the sender has not sent any weather packets the latest 10 day(s).
| Time | Temp. | Humidity | Pressure | Rain* | Wind** | Luminosity | Snow |
|---|---|---|---|---|---|---|---|
| 1777750755 | 8.89° C | 48% | - | 0 mm | - | - | - |
| 1777750453 | 8.89° C | 49% | - | 0 mm | - | - | - |
| 1777750148 | 8.89° C | 48% | - | 0 mm | - | - | - |
| 1777749845 | 8.89° C | 48% | - | 0 mm | - | - | - |
| 1777749542 | 8.89° C | 49% | - | 0 mm | - | - | - |
| 1777749240 | 8.89° C | 48% | - | 0 mm | - | - | - |
| 1777748937 | 8.89° C | 48% | - | 0 mm | - | - | - |
| 1777748634 | 8.89° C | 48% | - | 0 mm | - | - | - |
| 1777748330 | 8.89° C | 47% | - | 0 mm | - | - | - |
| 1777748026 | 8.89° C | 50% | - | 0 mm | - | - | - |
| 1777747723 | 8.89° C | 50% | - | 0 mm | - | - | - |
| 1777747419 | 8.33° C | 48% | - | 0 mm | - | - | - |
| 1777747115 | 8.33° C | 47% | - | 0 mm | - | - | - |
| 1777746812 | 8.89° C | 50% | - | 0 mm | - | - | - |
| 1777746506 | 8.33° C | 49% | - | 0 mm | - | - | - |
| 1777746202 | 9.44° C | 46% | - | 0 mm | - | - | - |
| 1777745899 | 8.89° C | 47% | - | 0 mm | - | - | - |
| 1777745598 | 8.89° C | 48% | - | 0 mm | - | - | - |
| 1777745296 | 8.33° C | 49% | - | 0 mm | - | - | - |
| 1777744993 | 8.89° C | 49% | - | 0 mm | - | - | - |
| 1777744688 | 8.89° C | 48% | - | 0 mm | - | - | - |
| 1777744383 | 8.89° C | 46% | - | 0 mm | - | - | - |
| 1777744080 | 8.33° C | 48% | - | 0 mm | - | - | - |
| 1777743777 | 8.33° C | 49% | - | 0 mm | - | - | - |
| 1777743473 | 7.78° C | 52% | - | 0 mm | - | - | - |
* Rain latest hour (hover to see other rain measurements)
** Current wind speed in m/s (hover to see current wind gust speed)